Terminal Aerodrome Forecast
Issued by NWS

Home | Current Version | Previous Version | Graphics & Text | Print | Product List | Glossary Off
Versions: 1 2 3 4 5 6 7 8 9 10 11 12 13 14 15 16 17 18 19 20 21 22 23 24 25 26

000
FTUS43 KDDC 201844 AAD
TAFGCK
TAF AMD
KGCK 201844Z 2019/2118 22006KT P6SM -RA VCSH SCT010 BKN050 OVC110
     FM210000 30010KT P6SM BKN100
     FM210600 25006KT P6SM SCT200
     FM210900 29004KT 3SM BR VCFG SCT200=

USA.gov is the U.S. government's official web portal to all federal, state and local government web resources and services.